This is the latest recevied weather packets stored in our database for station/object KQ4WWD. If no packets are shown the sender has not sent any weather packets the latest 10 day(s).
| Time | Temp. | Humidity | Pressure | Rain* | Wind** | Luminosity | Snow |
|---|---|---|---|---|---|---|---|
| 1777499570 | 32.22° C | 52% | 1010.9 hPa | 0 mm | - | 278 W/m² | - |
| 1777499269 | 31.67° C | 52% | 1010.9 hPa | 0 mm | - | 298 W/m² | - |
| 1777498966 | 31.67° C | 52% | 1010.9 hPa | 0 mm | - | 313 W/m² | - |
| 1777498662 | 32.22° C | 51% | 1010.7 hPa | 0 mm | - | 334 W/m² | - |
| 1777498358 | 32.22° C | 52% | 1010.8 hPa | 0 mm | - | 355 W/m² | - |
| 1777498056 | 32.22° C | 50% | 1010.7 hPa | 0 mm | - | 352 W/m² | - |
| 1777497752 | 32.22° C | 51% | 1010.9 hPa | 0 mm | - | 360 W/m² | - |
| 1777497450 | 32.22° C | 51% | 1010.6 hPa | 0 mm | - | 392 W/m² | - |
| 1777497145 | 32.22° C | 50% | 1011.1 hPa | 0 mm | - | 405 W/m² | - |
| 1777496842 | 32.78° C | 50% | 1011 hPa | 0 mm | - | 429 W/m² | - |
| 1777496539 | 32.78° C | 50% | 1010.9 hPa | 0 mm | - | 432 W/m² | - |
| 1777496235 | 32.22° C | 50% | 1011 hPa | 0 mm | - | 425 W/m² | - |
| 1777495931 | 32.78° C | 50% | 1011.1 hPa | 0 mm | - | 446 W/m² | - |
| 1777495627 | 32.78° C | 50% | 1010.8 hPa | 0 mm | - | 465 W/m² | - |
| 1777495323 | 32.78° C | 50% | 1010.9 hPa | 0 mm | - | 476 W/m² | - |
| 1777495021 | 32.22° C | 52% | 1011.1 hPa | 0 mm | - | 488 W/m² | - |
| 1777494718 | 32.22° C | 51% | 1011.4 hPa | 0 mm | - | 499 W/m² | - |
| 1777494415 | 32.78° C | 52% | 1011.3 hPa | 0 mm | - | 490 W/m² | - |
| 1777494111 | 32.78° C | 50% | 1011.4 hPa | 0 mm | - | 533 W/m² | - |
| 1777493809 | 33.33° C | 51% | 1011.5 hPa | 0 mm | - | 551 W/m² | - |
| 1777493507 | 33.33° C | 50% | 1011.7 hPa | 0 mm | - | 578 W/m² | - |
| 1777493203 | 32.78° C | 51% | 1011.8 hPa | 0 mm | - | 580 W/m² | - |
| 1777492900 | 32.78° C | 52% | 1011.7 hPa | 0 mm | - | 589 W/m² | - |
| 1777492597 | 32.78° C | 53% | 1012.1 hPa | 0 mm | - | 618 W/m² | - |
| 1777492292 | 32.78° C | 52% | 1012.3 hPa | 0 mm | - | 623 W/m² | - |
* Rain latest hour (hover to see other rain measurements)
** Current wind speed in m/s (hover to see current wind gust speed)